Ord, NE

3:42 AM CDT on August 22, 2017 (GMT -0500)
Sharp

Weather History for KODX - January, 2013

Change the Weather History Date:

Friday, January 11, 2013

  Actual Average Record
Temperature  
Mean Temperature 29 °F 24 °F  
Max Temperature 40 °F 37 °F 66 °F (2006)
Min Temperature 17 °F 12 °F -11 °F (2011)
Degree Days  
Heating Degree Days 36 41  
Month to date heating degree days 413 451  
Since 1 July heating degree days 3142 3175  
Cooling Degree Days 0 0  
Month to date cooling degree days 0 0  
Year to date cooling degree days 0 0  
Moisture  
Dew Point 29 °F    
Average Humidity 87    
Maximum Humidity 100    
Minimum Humidity 74    
Precipitation  
Precipitation T in 0.01 in 0.80 in (1905)
Month to date precipitation 0.02 0.10  
Year to date precipitation 0.02 0.10  
Sea Level Pressure  
Sea Level Pressure 29.49 in    
Wind  
Wind Speed 12 mph (NW)    
Max Wind Speed 33 mph    
Max Gust Speed 43 mph    
Visibility 5 miles    
Events Rain , Snow    
T = Trace of Precipitation, MM = Missing Value Source: NWS Daily Summary

Daily Weather History Graph

Daily Weather History Graph

Search for Another Location

Airport or City:

Trip Planner

Search our weather history database for the weather conditions in past years. The results will help you decide how hot, cold, wet, or windy it might be!

Date:

Astronomy

Jan. 11, 2013 Rise Set
Actual Time 8:01 AM CST 5:26 PM CST
Civil Twilight 7:30 AM CST 5:57 PM CST
Nautical Twilight 6:56 AM CST 6:31 PM CST
Astronomical Twilight 6:22 AM CST 7:05 PM CST
Moon 7:35 AM CST (1/11) 5:47 PM CST (1/11)
Length of Visible Light 10h 26m
Length of Day
9h 24m
Waning Crescent, 0% of the Moon is Illuminated
Jan 11
Waning Crescent
Jan 11
New
Jan 18
First Quarter
Jan 26
Full
Feb 3
Last Quarter

Hourly Weather History & Observations

Time (CST) Temp. Windchill Dew Point Humidity Pressure Visibility Wind Dir Wind Speed Gust Speed Precip Events Conditions
12:53 AM 36.0 °F 28.0 °F 35.1 °F 97% 29.60 in 5.0 mi SSW 11.5 mph - N/A   Overcast
1:53 AM 37.0 °F 30.4 °F 36.0 °F 96% 29.57 in 10.0 mi South 9.2 mph - N/A   Overcast
2:53 AM 36.0 °F 27.5 °F 35.1 °F 97% 29.57 in 10.0 mi South 12.7 mph - N/A   Overcast
3:53 AM 37.0 °F 30.4 °F 36.0 °F 96% 29.52 in 5.0 mi South 9.2 mph - N/A   Overcast
4:53 AM 36.0 °F 29.0 °F 36.0 °F 100% 29.50 in 2.5 mi South 9.2 mph - N/A   Overcast
5:02 AM 35.6 °F 29.2 °F 35.6 °F 100% 29.45 in 3.0 mi South 8.1 mph - N/A   Overcast
5:09 AM 35.6 °F 29.2 °F 35.6 °F 100% 29.45 in 2.0 mi South 8.1 mph - N/A   Overcast
5:19 AM 35.6 °F 29.9 °F 35.6 °F 100% 29.44 in 1.8 mi South 6.9 mph - N/A   Overcast
5:30 AM 35.6 °F 28.0 °F 35.6 °F 100% 29.43 in 2.0 mi South 10.4 mph - N/A   Overcast
5:53 AM 36.0 °F 32.1 °F 36.0 °F 100% 29.47 in 2.5 mi South 4.6 mph - N/A   Overcast
6:06 AM 37.4 °F 32.8 °F 35.6 °F 93% 29.43 in 4.0 mi SSW 5.8 mph - N/A   Overcast
6:28 AM 35.6 °F 32.8 °F 35.6 °F 100% 29.43 in 2.5 mi SSW 3.5 mph - N/A   Overcast
6:49 AM 35.6 °F 32.8 °F 35.6 °F 100% 29.43 in 1.8 mi SSE 3.5 mph - N/A   Overcast
6:53 AM 36.0 °F - 36.0 °F 100% 29.47 in 1.8 mi Calm Calm - N/A   Overcast
7:20 AM 35.6 °F - 35.6 °F 100% 29.42 in 1.5 mi Calm Calm - N/A   Overcast
7:27 AM 35.6 °F 32.8 °F 35.6 °F 100% 29.41 in 0.8 mi East 3.5 mph - N/A   Overcast
7:51 AM 35.6 °F 30.7 °F 35.6 °F 100% 29.39 in 1.0 mi ESE 5.8 mph - N/A   Overcast
7:53 AM 36.0 °F 31.1 °F 36.0 °F 100% 29.44 in 1.0 mi ESE 5.8 mph - N/A   Overcast
8:03 AM 35.6 °F 28.6 °F 35.6 °F 100% 29.38 in 0.8 mi ESE 9.2 mph - N/A   Mist
8:18 AM 35.6 °F 29.9 °F 35.6 °F 100% 29.40 in 1.2 mi SE 6.9 mph - N/A   Overcast
8:40 AM 35.6 °F 31.7 °F 35.6 °F 100% 29.42 in 2.5 mi South 4.6 mph - N/A   Overcast
8:53 AM 36.0 °F 33.3 °F 35.1 °F 97% 29.47 in 2.0 mi South 3.5 mph - N/A   Overcast
9:53 AM 36.0 °F 33.3 °F 36.0 °F 100% 29.44 in 1.8 mi East 3.5 mph - N/A   Overcast
10:04 AM 35.6 °F 32.8 °F 35.6 °F 100% 29.40 in 2.0 mi SE 3.5 mph - N/A   Overcast
10:29 AM 37.4 °F - 35.6 °F 93% 29.39 in 3.0 mi Calm Calm - N/A   Overcast
10:53 AM 37.0 °F 33.3 °F 36.0 °F 96% 29.47 in 4.0 mi SW 4.6 mph - N/A   Overcast
11:33 AM 37.4 °F 34.9 °F 37.4 °F 100% 29.39 in 5.0 mi NNW 3.5 mph - N/A   Overcast
11:53 AM 37.0 °F 31.0 °F 36.0 °F 96% 29.42 in 6.0 mi NNW 8.1 mph - N/A   Overcast
12:02 PM 37.4 °F 29.3 °F 35.6 °F 93% 29.36 in 8.0 mi NNW 12.7 mph - N/A   Overcast
12:07 PM 37.4 °F 31.4 °F 35.6 °F 93% 29.37 in 8.0 mi NNW 8.1 mph - N/A   Overcast
12:21 PM 37.4 °F 32.1 °F 35.6 °F 93% 29.38 in 8.0 mi NW 6.9 mph - N/A   Overcast
12:53 PM 37.9 °F 33.5 °F 35.1 °F 89% 29.40 in 10.0 mi NW 5.8 mph - N/A   Overcast
12:57 PM 37.4 °F 32.1 °F 35.6 °F 93% 29.36 in 10.0 mi NNW 6.9 mph - N/A   Overcast
1:17 PM 39.2 °F 37.0 °F 35.6 °F 87% 29.36 in 10.0 mi NNW 3.5 mph - N/A   Mostly Cloudy
1:51 PM 35.6 °F 27.1 °F 32.0 °F 87% 29.35 in 10.0 mi North 12.7 mph 20.7 mph N/A   Overcast
1:53 PM 35.1 °F 26.4 °F 32.0 °F 89% 29.39 in 10.0 mi North 12.7 mph - N/A   Overcast
2:00 PM 33.8 °F 24.3 °F 32.0 °F 93% 29.34 in 10.0 mi North 13.8 mph - N/A   Overcast
2:17 PM 33.8 °F 24.3 °F 32.0 °F 93% 29.34 in 10.0 mi North 13.8 mph - N/A   Overcast
2:53 PM 32.0 °F 21.6 °F 30.0 °F 92% 29.42 in 9.0 mi NNW 15.0 mph 20.7 mph N/A   Overcast
3:53 PM 30.0 °F 19.5 °F 28.0 °F 92% 29.47 in 2.5 mi North 13.8 mph - N/A   Overcast
4:29 PM 28.4 °F 16.2 °F 26.6 °F 93% 29.44 in 2.5 mi NNW 17.3 mph 25.3 mph N/A   Overcast
4:36 PM 28.4 °F 15.8 °F 28.4 °F 100% 29.44 in 2.5 mi NNW 18.4 mph - 0.00 in Rain Light Freezing Rain
4:53 PM 28.9 °F 16.9 °F 27.0 °F 92% 29.50 in 2.5 mi NNW 17.3 mph 23.0 mph 0.00 in Rain Light Freezing Rain
5:10 PM 28.4 °F 14.7 °F 26.6 °F 93% 29.45 in 3.0 mi NNW 21.9 mph 26.5 mph 0.00 in Rain Light Freezing Rain
5:29 PM 26.6 °F 12.7 °F 24.8 °F 93% 29.47 in 7.0 mi NNW 20.7 mph - 0.00 in Rain Light Freezing Rain
5:36 PM 26.6 °F 12.4 °F 24.8 °F 93% 29.48 in 7.0 mi NW 21.9 mph 25.3 mph 0.00 in Rain Light Freezing Rain
5:40 PM 26.6 °F 12.7 °F 24.8 °F 93% 29.48 in 7.0 mi NNW 20.7 mph 28.8 mph 0.00 in   Overcast
5:53 PM 27.0 °F 13.5 °F 24.1 °F 89% 29.54 in 8.0 mi NW 19.6 mph 28.8 mph 0.00 in   Overcast
6:05 PM 26.6 °F 12.7 °F 23.0 °F 86% 29.51 in 10.0 mi NW 20.7 mph 28.8 mph N/A   Overcast
6:49 PM 24.8 °F 8.1 °F 19.4 °F 80% 29.52 in 1.8 mi NNW 28.8 mph 36.8 mph 0.00 in Snow Light Snow
6:53 PM 24.1 °F 7.7 °F 19.9 °F 84% 29.59 in 1.8 mi NNW 26.5 mph 36.8 mph 0.00 in Snow Light Snow
6:56 PM 23.0 °F 6.0 °F 19.4 °F 86% 29.52 in 2.0 mi NNW 27.6 mph 36.8 mph 0.00 in Snow Light Snow
7:04 PM 23.0 °F 6.3 °F 17.6 °F 80% 29.53 in 3.0 mi NW 26.5 mph 41.4 mph 0.00 in Snow Light Snow
7:53 PM 21.9 °F 7.3 °F 19.0 °F 89% 29.67 in 2.0 mi WNW 18.4 mph 26.5 mph 0.00 in Snow Light Snow
7:57 PM 21.2 °F 7.3 °F 19.4 °F 93% 29.61 in 1.8 mi WNW 16.1 mph - 0.00 in Snow Light Snow
8:21 PM 21.2 °F 4.9 °F 17.6 °F 86% 29.62 in 2.5 mi WNW 23.0 mph 29.9 mph 0.00 in Snow Light Snow
8:35 PM 21.2 °F 4.5 °F 15.8 °F 80% 29.63 in 3.0 mi NW 24.2 mph 33.4 mph 0.00 in Snow Light Snow
8:53 PM 19.9 °F 1.3 °F 14.0 °F 78% 29.72 in 7.0 mi NW 29.9 mph 42.6 mph 0.00 in Snow Light Snow
9:53 PM 19.0 °F 3.6 °F 12.0 °F 74% 29.76 in 10.0 mi WNW 18.4 mph 23.0 mph 0.00 in   Clear
10:53 PM 18.0 °F 2.2 °F 10.0 °F 71% 29.81 in 10.0 mi WNW 18.4 mph 28.8 mph N/A   Clear
11:14 PM 17.6 °F 1.7 °F 10.4 °F 73% 29.76 in 10.0 mi WNW 18.4 mph 26.5 mph N/A   Mostly Cloudy
11:21 PM 17.6 °F 1.7 °F 10.4 °F 73% 29.76 in 10.0 mi WNW 18.4 mph 27.6 mph N/A   Scattered Clouds
11:41 PM 17.6 °F 5.7 °F 10.4 °F 73% 29.78 in 7.0 mi WNW 10.4 mph - 0.00 in Snow Light Snow
11:53 PM 17.1 °F 1.5 °F 10.9 °F 77% 29.86 in 9.0 mi WNW 17.3 mph 23.0 mph 0.00 in   Mostly Cloudy